{"data":{"norad_id":53750,"intl_designator":"2022-107BC","name":"STARLINK-4612","alt_names":[],"object_type":"PAYLOAD","status":"ACTIVE","operator":null,"country":"US","launch_date":"2022-09-05","launch_site_code":"AFETR","launch_vehicle":null,"mission":null,"orbit_class":"UNKNOWN","rcs_meters":null,"size_class":null,"mass_kg":null,"dimensions":null,"purposes":["comms"],"wikipedia_slug":null,"has_3d_model":false,"image_url":null,"decayed_at":null,"tle_current":{"epoch":"2026-09-20T19:42:53.788896Z","epoch_age_seconds":56329,"freshness":"FRESH","line1":"1 53750U 22107BC  26263.82145589  .00000208  00000+0  17295-4 0  9990","line2":"2 53750  53.1594  91.9066 0001133  89.6936 270.4196 15.34391441224281","mean_motion":15.34391441,"eccentricity":0.0001133,"inclination_deg":53.1594,"raan_deg":91.9066,"arg_perigee_deg":89.6936,"mean_anomaly_deg":270.4196,"bstar":1.7295e-5,"rev_number":22428,"period_min":93.848281574193,"perigee_km":461.9536093956,"apogee_km":463.50374955857,"semimajor_km":6840.8656794771,"source":"CELESTRAK","updated_at":"2026-09-21T09:00:32.990854Z"}}}